Date String (YYYY-MM-DD hh:mm:ss) UTC,Instrument flags,absolute air pressure of the measurement (hPa),sample flow rate (lpm),inlet stack bypass flow (lpm),air temperature of the measurement (°C),ambient temperature measured by the external sensor (°C),aerosol sample conditioner tube jacket temperature (°C),OPC LED temperature (°C),internal box temperature (°C),relative humidity of the measurement (%),span deviation,mass concentration of particles derived from Lorenz-Mie calculation of OPC scattering (μg/m³),mass concentration of particles derived from Lorenz-Mie calculation of OPC scattering (μg/m³),mass concentration of particles derived from Lorenz-Mie calculation of OPC scattering (μg/m³)
DateTimeUTC,F1_M11,P_M11,Q1_M11,Q2_M11,T1_M11,T2_M11,T3_M11,T4_M11,T5_M11,U1_M11,ZSPAN_M11,X0_M11,X2_M11,X1_M11
2023-12-02 07:00:00,SystemResetWarning,0820.0,5.00,000.00,018.9,018.0,000.0,027.3,020.1,12.2,0000.0,0010.86,0007.06,0006.64
2023-12-02 07:01:00,SystemResetWarning,0820.0,5.01,000.00,018.9,018.0,000.0,027.3,020.1,12.3,0000.0,0010.26,0006.60,0006.22
2023-12-02 07:02:00,SystemResetWarning,0820.1,5.00,000.00,018.9,018.0,000.0,027.3,020.1,12.4,0000.0,0009.84,0006.26,0005.89
2023-12-02 07:03:00,SystemResetWarning,0820.1,5.00,000.00,018.9,018.0,000.0,027.3,020.0,12.5,0000.7,0009.35,0005.88,0005.56
2023-12-02 07:04:00,SystemResetWarning,0820.1,5.00,000.00,018.9,018.0,000.0,027.3,020.1,12.3,0000.0,0009.05,0005.60,0005.31
2023-12-02 07:05:00,SystemResetWarning,0819.9,5.00,000.00,018.9,018.0,000.0,027.3,020.0,12.2,0000.0,0008.52,0005.36,0005.09
2023-12-02 07:06:00,SystemResetWarning,0819.9,5.00,000.00,018.9,018.0,000.0,027.3,020.0,12.0,0000.0,0007.92,0005.20,0004.97
2023-12-02 07:07:00,SystemResetWarning,0820.1,5.00,000.00,018.8,017.9,000.0,027.3,020.0,11.9,0000.0,0007.96,0005.21,0004.98
2023-12-02 07:08:00,SystemResetWarning,0820.3,5.00,000.00,018.8,017.9,000.0,027.3,020.0,11.8,0000.0,0008.72,0005.26,0005.03
2023-12-02 07:09:00,SystemResetWarning,0820.2,5.00,000.00,018.8,017.9,000.0,027.3,020.0,11.7,0000.0,0008.79,0005.33,0005.09
2023-12-02 07:10:00,SystemResetWarning,0820.0,5.00,000.00,018.8,017.8,000.0,027.3,020.0,11.9,0000.0,0008.97,0005.49,0005.23
2023-12-02 07:11:00,SystemResetWarning,0819.9,5.00,000.00,018.8,017.8,000.0,027.3,020.0,11.8,0001.2,0009.17,0005.67,0005.40
2023-12-02 07:12:00,SystemResetWarning,0819.9,4.99,000.00,018.8,017.8,000.0,027.3,020.0,11.7,0003.6,0009.51,0005.90,0005.60
2023-12-02 07:13:00,SystemResetWarning,0819.9,5.00,000.00,018.8,017.8,000.0,027.3,020.0,11.5,0003.5,0009.64,0005.98,0005.68
2023-12-02 07:14:00,SystemResetWarning,0820.2,5.00,000.00,018.8,017.8,000.0,027.3,020.0,11.3,0001.6,0009.76,0006.05,0005.71
2023-12-02 07:15:00,SystemResetWarning,0820.4,5.00,000.00,018.8,017.8,000.0,027.3,020.0,11.2,0000.0,0009.76,0006.06,0005.72
2023-12-02 07:16:00,SystemResetWarning,0820.1,5.01,000.00,018.8,017.8,000.0,027.2,020.0,11.1,0000.0,0009.69,0006.02,0005.68
2023-12-02 07:17:00,SystemResetWarning,0820.0,5.00,000.00,018.8,017.8,000.0,027.3,020.0,11.3,0000.0,0009.62,0005.99,0005.63
2023-12-02 07:18:00,SystemResetWarning,0819.9,5.00,000.00,018.8,017.8,000.0,027.3,020.0,11.7,0000.0,0009.38,0005.88,0005.53
2023-12-02 07:19:00,SystemResetWarning,0819.8,5.01,000.00,018.8,017.8,000.0,027.3,020.0,11.6,0000.0,0008.73,0005.72,0005.36
2023-12-02 07:20:00,SystemResetWarning,0819.8,5.00,000.00,018.8,017.8,000.0,027.3,020.0,11.4,0000.0,0008.47,0005.55,0005.18
2023-12-02 07:21:00,SystemResetWarning,0819.8,5.00,000.00,018.8,017.8,000.0,027.3,020.0,11.6,0000.0,0008.17,0005.30,0004.94
2023-12-02 07:22:00,SystemResetWarning,0819.7,5.00,000.00,018.8,017.8,000.0,027.2,020.0,11.9,0000.0,0007.96,0005.07,0004.71
2023-12-02 07:23:00,SystemResetWarning,0819.7,5.00,000.00,018.8,017.8,000.0,027.2,020.0,11.7,0000.0,0007.66,0004.83,0004.49
2023-12-02 07:24:00,SystemResetWarning,0819.8,4.99,000.00,018.8,017.9,000.0,027.2,020.0,11.8,0000.0,0007.50,0004.70,0004.36
2023-12-02 07:25:00,SystemResetWarning,0819.8,4.99,000.00,018.8,017.9,000.0,027.2,020.0,11.8,0000.0,0007.47,0004.67,0004.33
2023-12-02 07:26:00,SystemResetWarning,0820.1,5.00,000.00,018.8,017.9,000.0,027.2,020.0,11.1,0000.0,0007.39,0004.59,0004.26
2023-12-02 07:27:00,SystemResetWarning,0820.2,5.00,000.00,018.8,017.9,000.0,027.2,020.0,10.6,0000.0,0007.37,0004.54,0004.21
2023-12-02 07:28:00,SystemResetWarning,0820.1,4.99,000.00,018.8,017.9,000.0,027.2,020.0,10.3,0000.0,0007.25,0004.47,0004.17
2023-12-02 07:29:00,SystemResetWarning,0819.8,5.01,000.00,018.8,018.0,000.0,027.2,020.0,10.3,0000.0,0007.15,0004.42,0004.13
2023-12-02 07:30:00,SystemResetWarning,0819.9,5.01,000.00,018.8,018.0,000.0,027.2,020.0,10.5,0000.0,0007.11,0004.43,0004.12
2023-12-02 07:31:00,SystemResetWarning,0820.0,5.00,000.00,018.8,018.0,000.0,027.2,020.0,10.4,0000.0,0006.97,0004.42,0004.12
2023-12-02 07:32:00,SystemResetWarning,0819.9,5.01,000.00,018.8,018.0,000.0,027.2,020.1,10.3,0000.0,0007.21,0004.47,0004.14
2023-12-02 07:33:00,SystemResetWarning,0819.8,5.00,000.00,018.8,018.0,000.0,027.2,020.0,10.4,0000.0,0007.14,0004.44,0004.11
2023-12-02 07:34:00,SystemResetWarning,0819.8,5.00,000.00,018.9,018.0,000.0,027.2,020.1,10.7,0000.0,0006.95,0004.37,0004.04
2023-12-02 07:35:00,SystemResetWarning,0820.1,4.99,000.00,018.8,018.0,000.0,027.2,020.0,10.8,0000.0,0006.65,0004.24,0003.92
2023-12-02 07:36:00,SystemResetWarning,0819.9,5.00,000.00,018.8,018.0,000.0,027.2,020.0,10.9,0000.0,0006.11,0004.01,0003.73
2023-12-02 07:37:00,SystemResetWarning,0819.7,5.00,000.00,018.8,017.9,000.0,027.2,020.0,10.9,0000.0,0005.91,0003.89,0003.62
2023-12-02 07:38:00,SystemResetWarning,0819.8,5.00,000.00,018.8,017.9,000.0,027.2,020.0,10.8,0000.0,0005.58,0003.77,0003.52
2023-12-02 07:39:00,SystemResetWarning,0820.1,5.01,000.00,018.8,017.9,000.0,027.2,020.0,10.8,0000.0,0005.22,0003.61,0003.36
2023-12-02 07:40:00,SystemResetWarning,0820.1,5.01,000.00,018.8,017.9,000.0,027.2,020.0,10.8,0000.0,0005.44,0003.46,0003.20
2023-12-02 07:41:00,SystemResetWarning,0819.7,5.01,000.00,018.8,017.8,000.0,027.2,020.0,10.8,0000.0,0005.21,0003.31,0003.06
2023-12-02 07:42:00,SystemResetWarning,0819.7,5.01,000.00,018.8,017.8,000.0,027.2,020.0,10.9,0000.0,0005.06,0003.20,0002.90
2023-12-02 07:43:00,SystemResetWarning,0819.7,5.00,000.00,018.8,017.8,000.0,027.2,020.0,11.0,0000.0,0005.63,0003.09,0002.76
2023-12-02 07:44:00,SystemResetWarning,0819.7,4.99,000.00,018.8,017.8,000.0,027.2,020.0,11.1,0000.0,0005.58,0003.05,0002.76
2023-12-02 07:45:00,SystemResetWarning,0819.7,5.00,000.00,018.8,017.8,000.0,027.2,020.0,11.1,0000.0,0005.67,0003.11,0002.84
2023-12-02 07:46:00,SystemResetWarning,0819.7,5.00,000.00,018.8,017.9,000.0,027.2,020.0,11.0,0000.0,0005.89,0003.18,0002.96
2023-12-02 07:47:00,SystemResetWarning,0819.5,5.00,000.00,018.8,017.9,000.0,027.2,020.0,10.9,0000.0,0006.63,0003.25,0003.06
2023-12-02 07:48:00,SystemResetWarning,0819.8,5.00,000.00,018.8,017.9,000.0,027.2,020.0,10.9,0000.0,0007.29,0003.29,0003.08
2023-12-02 07:49:00,SystemResetWarning,0819.5,5.01,000.00,018.8,017.9,000.0,027.2,020.0,11.0,0000.0,0007.45,0003.34,0003.12
2023-12-02 07:50:00,SystemResetWarning,0819.9,5.00,000.00,018.8,017.9,000.0,027.2,020.0,11.1,0000.0,0007.58,0003.43,0003.19
2023-12-02 07:51:00,SystemResetWarning,0819.8,5.00,000.00,018.8,017.9,000.0,027.2,020.0,11.1,0000.0,0007.46,0003.49,0003.26
2023-12-02 07:52:00,SystemResetWarning,0819.6,5.00,000.00,018.8,017.9,000.0,027.2,020.0,11.0,0000.0,0007.35,0003.53,0003.29
2023-12-02 07:53:00,SystemResetWarning,0819.5,5.00,000.00,018.8,017.9,000.0,027.2,020.0,11.2,0000.0,0007.69,0003.53,0003.30
2023-12-02 07:54:00,SystemResetWarning,0819.5,5.00,000.00,018.8,017.9,000.0,027.2,020.0,11.2,0000.0,0007.76,0003.50,0003.27
2023-12-02 07:55:00,SystemResetWarning,0819.7,5.00,000.00,018.8,017.9,000.0,027.2,020.0,11.2,0000.0,0008.11,0003.48,0003.25
2023-12-02 07:56:00,SystemResetWarning,0819.8,5.00,000.00,018.8,017.9,000.0,027.2,020.0,11.2,0000.0,0008.39,0003.48,0003.26
2023-12-02 07:57:00,SystemResetWarning,0820.0,4.99,000.00,018.8,017.9,000.0,027.2,020.0,11.2,0000.0,0008.83,0003.51,0003.29
2023-12-02 07:58:00,SystemResetWarning,0819.8,5.00,000.00,018.8,017.9,000.0,027.2,020.0,11.2,0000.0,0008.62,0003.52,0003.30
2023-12-02 07:59:00,SystemResetWarning,0819.5,5.01,000.00,018.8,017.9,000.0,027.2,020.0,11.3,0000.0,0008.33,0003.53,0003.32
